Das Wetter in  D-61279 Heinzenberg / Taunus





Wetter Minimum- & Maximum-Werte im Oktober 2016

Standort: Heinzenberg / Taunus - Höhe 297 m         8 24' 1" Ost 50 21' 51" Nord
(   3-stündige Aktualisierung    letzte Aktualisierung um 19:04 am 31.10.2016  )


Messgrösse

Minimum

Maximum

Durchschnitt

Temperatur West /
Luftfeuchte West
Anklicken für Monats-Diagramm

1,1 C

07:50
10.10.2016

49 %

15:41
05.10.2016

21,2 C

16:01
16.10.2016

94 %

00:50
25.10.2016

Temp

8,4 C

Feuchte

84 %

Temperatur Ost /
Luftfeuchte Ost
Anklicken für Monats-Diagramm

1,2 C

07:55
10.10.2016

--

--
--

21,2 C

16:06
16.10.2016

--

--
--

8,6 C

--

Luftdruck Anklicken für Monats-Diagramm

1005,1 hPa

17:59
14.10.2016

1034,6 hPa

09:43
29.10.2016

1021,0 hPa

Taupunkt

-0,7 C

07:50
10.10.2016

14,0 C

13:12
01.10.2016

5,7 C

Windchill
( gefühlte Temperatur )

-4,0 C

17:54
19.10.2016

21,2 C

16:01
16.10.2016

7,5 C

Windgeschwindigkeit /
Windrichtung
Anklicken für Monats-Diagramm

---

44,5 km/h / W-SW

15:14
19.10.2016

3,9 km/h
W-SW

Helligkeit /
Sonnenschein
Anklicken für Monats-Diagramm
Anklicken für Monats-Diagramm

Sonnenschein:

74:35 Stunden

Max: 9:10 Std am
16.10.2016

105 klux

12:43
02.10.2016

19 klux

Solarstrahlung Anklicken für Monats-Diagramm

---

718 W/m

12:43
02.10.2016

141 W/m

Regenmenge
    Oktober 2016
Anklicken für Monats-Diagramm

Insgesamt 53,5 l/m

in 81:02 Stunden
an 23 Tagen

12,2 l/m

10:19
03.10.2016

Gesamtmenge

53,5 l/m

Regen-Tage
    Oktober 2016
Anklicken für Monats-Diagramm

>   0 mm/Tag

>   2 mm/Tag

>   5 mm/Tag

> 10 mm/Tag

> 20 mm/Tag

23 Tage     
6 Tage     
4 Tage     
2 Tage     
0 Tage     

Eisige Tage Oktober 2016 / 2015

Tmin ≤ -10C     

0 Tage

/

0 Tage

Eistage Oktober 2016 / 2015

Tmax <     0C     

0 Tage

/

0 Tage

Frosttage Oktober 2016 / 2015

Tmin ≤     0C     

0 Tage

/

2 Tage

Kalte Tage Oktober 2016 / 2015

Tmax <   10C     

5 Tage

/

8 Tage

Warme Tage Oktober 2016 / 2015

Tmax ≥   20C     

  1 Tag

/

2 Tage

Sommertage Oktober 2016 / 2015

Tmax ≥   25C     

0 Tage

/

0 Tage

Heisse Tage Oktober 2016 / 2015

Tmax ≥   30C     

0 Tage

/

0 Tage


Monatsdiagramm Oktober 2016

Die Kurven zeigen den Durchschnittswert des jeweiligen Tages an


Wetter-Monatsübersicht Oktober 2016
Datum
  Temperatur
   Luftdruck
   Wind
  Regen
   Luftfeuchte
   Helligkeit

Sonnen-
schein


Temp.

Min.
Temp.

Max.
Temp.


Luftdruck

Min.
Luftdruck

Max.
Luftdruck

-Geschw.
Haupt-Richtg.

Max.
Wind

Menge /
Dauer


Feuchte

Min.
Feuchte

Max.
Feuchte


Helligkeit

Max.
Helligkeit

1.
Oktober
12,9 C10,8 C
01:37
15,8 C
14:42
1009,9 hPa1006,9 hPa
15:37
1014,7 hPa
00:02
4,3 km/h
W-SW
20,0 km/h
16:41  
10,5 l/m
11:56 Stunden
88 %84 %
00:02
91 %
10:12
10,5 klux33,0 klux
12:57
10 Min 
2.
Oktober
11,6 C10,2 C
21:38
14,9 C
12:53
1012,8 hPa1010,4 hPa
04:18
1016,8 hPa
22:44
12,7 km/h
W-SW
39,4 km/h
12:43  
2,3 l/m
6:16 Stunden
82 %61 %
12:53
90 %
23:49
28,0 klux105,0 klux
12:43
4:05 Std 
3.
Oktober
10,8 C7,6 C
23:50
14,6 C
15:19
1023,1 hPa1016,8 hPa
00:04
1028,6 hPa
23:50
10,0 km/h
W
26,7 km/h
02:54  
12,2 l/m
10:35 Stunden
89 %82 %
15:24
93 %
12:04
17 klux81 klux
15:14
1:40 Std 
4.
Oktober
9,4 C4,8 C
05:05
18,3 C
16:10
1031,0 hPa1028,6 hPa
00:00
1034,0 hPa
23:46
1,8 km/h
NO
22,4 km/h
15:45  
0,3 l/m
50 Minuten
81 %54 %
17:20
93 %
10:00
23,2 klux84,3 klux
13:20
3:05 Std 
5.
Oktober
8,2 C4,0 C
01:41
15,5 C
15:41
1031,0 hPa1027,5 hPa
22:11
1034,1 hPa
00:31
4,4 km/h
NO
23,7 km/h
10:56  
---
10 Minuten
73 %49 %
15:41
86 %
03:06
33,8 klux96,9 klux
13:26
5:40 Std 
6.
Oktober
7,1 C2,8 C
05:47
11,0 C
15:57
1022,5 hPa1019,8 hPa
15:57
1027,8 hPa
00:07
2,9 km/h
NO
25,1 km/h
17:07  
0,6 l/m
1:31 Stunden
82 %75 %
15:02
87 %
23:08
11,1 klux38,9 klux
14:47
--- 
7.
Oktober
10,0 C7,4 C
23:53
13,5 C
16:43
1019,2 hPa1018,5 hPa
16:43
1020,3 hPa
23:53
1,1 km/h
NO
14,6 km/h
14:33  
0,8 l/m
2:05 Stunden
85 %74 %
16:38
90 %
09:28
14,5 klux57,0 klux
16:23
15 Min 
8.
Oktober
8,3 C4,9 C
23:54
15,6 C
16:33
1022,0 hPa1020,3 hPa
00:03
1024,8 hPa
23:54
2,1 km/h
NO
16,1 km/h
14:53  
0,8 l/m
1:35 Stunden
81 %54 %
16:38
91 %
08:23
22,2 klux82,2 klux
13:13
2:00 Std 
9.
Oktober
7,3 C4,2 C
03:29
14,6 C
14:39
1024,5 hPa1022,5 hPa
14:39
1025,6 hPa
23:55
1,2 km/h
NO
18,8 km/h
14:59  
---
20 Minuten
81 %57 %
14:44
90 %
09:59
21,4 klux86,9 klux
14:24
2:10 Std 
10.
Oktober
6,0 C1,1 C
07:50
12,4 C
13:30
1023,9 hPa1021,1 hPa
18:05
1026,1 hPa
04:00
1,3 km/h
NW
15,5 km/h
15:05  
---
80 %60 %
13:30
90 %
09:25
25,1 klux89,3 klux
13:15
4:00 Std 
11.
Oktober
7,2 C3,7 C
08:21
12,6 C
15:11
1020,1 hPa1018,6 hPa
15:11
1021,7 hPa
04:16
1,0 km/h
NO
18,1 km/h
12:26  
---
30 Minuten
80 %62 %
15:01
89 %
09:31
23,0 klux81,5 klux
15:06
3:35 Std 
12.
Oktober
7,2 C6,0 C
23:58
8,8 C
13:17
1019,0 hPa1018,2 hPa
17:12
1019,4 hPa
23:58
1,3 km/h
NO
19,8 km/h
14:32  
0,5 l/m
2:30 Stunden
85 %79 %
15:22
91 %
10:27
10,8 klux35,5 klux
13:02
--- 
13.
Oktober
6,5 C2,6 C
05:43
10,4 C
15:43
1016,3 hPa1012,9 hPa
19:23
1019,7 hPa
01:58
5,0 km/h
O
33,5 km/h
13:28  
---
80 %69 %
15:43
89 %
06:28
14,3 klux38,5 klux
15:28
10 Min 
14.
Oktober
9,3 C4,9 C
07:59
15,4 C
14:29
1008,5 hPa1005,1 hPa
17:59
1013,2 hPa
00:29
3,5 km/h
O
23,6 km/h
11:48  
---
74 %57 %
14:04
82 %
08:39
27,0 klux75,9 klux
13:49
4:51 Std 
15.
Oktober
10,5 C6,3 C
07:05
15,2 C
13:10
1011,8 hPa1005,6 hPa
00:00
1019,4 hPa
23:56
8,2 km/h
W-SW
38,8 km/h
10:05  
---
20 Minuten
81 %69 %
13:10
90 %
07:45
16,5 klux64,1 klux
13:00
1:30 Std 
16.
Oktober
9,3 C1,8 C
08:21
21,2 C
16:01
1021,2 hPa1019,4 hPa
00:01
1023,1 hPa
09:01
2,6 km/h
SO
13,7 km/h
16:16  
---
55 Minuten
80 %53 %
16:11
91 %
11:06
38,5 klux65,3 klux
13:21
9:10 Std 
17.
Oktober
9,6 C4,7 C
05:42
16,8 C
14:07
1022,0 hPa1021,2 hPa
14:07
1022,9 hPa
23:27
1,8 km/h
NW
14,1 km/h
15:27  
0,6 l/m
2:04 Stunden
86 %73 %
14:22
90 %
10:17
19,9 klux65,1 klux
13:37
2:55 Std 
18.
Oktober
11,4 C9,9 C
23:49
15,0 C
13:58
1021,0 hPa1017,8 hPa
21:53
1023,0 hPa
09:48
9,0 km/h
W-SW
26,5 km/h
15:28  
0,3 l/m
1:31 Stunden
83 %69 %
15:28
92 %
05:58
15,4 klux84,9 klux
13:33
1:00 Std 
19.
Oktober
7,8 C5,4 C
22:19
10,4 C
14:44
1015,4 hPa1012,7 hPa
14:44
1018,2 hPa
03:14
18,4 km/h
W-SW
44,5 km/h
15:14  
1,8 l/m
6:10 Stunden
83 %70 %
14:49
89 %
23:15
14,6 klux83,2 klux
13:09
1:10 Std 
20.
Oktober
6,1 C4,4 C
23:01
7,7 C
17:00
1012,8 hPa1012,0 hPa
17:00
1014,3 hPa
00:00
2,6 km/h
W-SW
17,3 km/h
07:00  
5,0 l/m
6:15 Stunden
89 %87 %
17:40
91 %
04:05
8,9 klux25,3 klux
14:10
--- 
21.
Oktober
5,5 C4,0 C
04:41
8,2 C
13:16
1014,5 hPa1013,4 hPa
01:21
1015,5 hPa
22:37
2,3 km/h
W
15,3 km/h
16:31  
2,0 l/m
2:45 Stunden
89 %83 %
15:46
92 %
04:21
13,0 klux66,9 klux
13:01
15 Min 
22.
Oktober
6,4 C3,1 C
23:53
11,5 C
16:47
1013,4 hPa1012,1 hPa
09:07
1015,7 hPa
23:53
4,9 km/h
W-SW
17,8 km/h
02:57  
2,0 l/m
4:45 Stunden
88 %73 %
16:47
92 %
11:17
12,6 klux51,1 klux
16:22
55 Min 
23.
Oktober
5,2 C2,4 C
00:47
9,3 C
16:23
1013,4 hPa1011,8 hPa
16:23
1015,8 hPa
00:47
1,0 km/h
SO
11,1 km/h
11:48  
---
89 %83 %
16:08
92 %
08:28
11,4 klux28,7 klux
15:38
35 Min 
24.
Oktober
7,8 C4,9 C
00:49
9,7 C
17:39
1013,1 hPa1011,7 hPa
14:24
1014,9 hPa
22:14
0,3 km/h
SO
6,4 km/h
12:44  
9,4 l/m
12:24 Stunden
92 %89 %
00:04
93 %
10:59
5,6 klux23,2 klux
12:09
--- 
25.
Oktober
9,8 C8,7 C
22:10
12,2 C
14:05
1021,0 hPa1014,9 hPa
00:00
1026,3 hPa
22:20
2,6 km/h
W
23,8 km/h
12:30  
4,6 l/m
5:10 Stunden
91 %86 %
16:40
94 %
00:50
11,0 klux79,7 klux
13:55
5 Min 
26.
Oktober
8,7 C5,6 C
23:46
12,2 C
17:06
1028,3 hPa1026,3 hPa
00:01
1031,9 hPa
23:46
0,8 km/h
W-NW
11,8 km/h
13:01  
---
10 Minuten
86 %70 %
16:31
93 %
09:46
11,1 klux35,4 klux
16:26
1:10 Std 
27.
Oktober
7,4 C2,7 C
07:21
13,2 C
13:46
1033,1 hPa1032,0 hPa
00:01
1034,3 hPa
08:56
2,5 km/h
W-SW
17,8 km/h
13:11  
---
15 Minuten
85 %71 %
14:06
93 %
11:41
20,5 klux68,2 klux
13:41
2:35 Std 
28.
Oktober
9,9 C6,8 C
01:52
12,8 C
13:47
1033,2 hPa1032,1 hPa
14:42
1034,3 hPa
23:33
5,9 km/h
W
25,1 km/h
14:22  
---
85 %76 %
13:52
91 %
05:32
9,5 klux62,5 klux
13:32
35 Min 
29.
Oktober
10,3 C3,9 C
23:59
16,8 C
15:53
1033,1 hPa1031,0 hPa
17:43
1034,6 hPa
09:43
4,6 km/h
NW
24,6 km/h
12:13  
---
81 %54 %
15:53
92 %
09:23
29,9 klux73,9 klux
12:43
5:20 Std 
30.
Oktober
7,0 C1,9 C
07:39
16,5 C
14:44
1031,3 hPa1028,5 hPa
14:44
1033,4 hPa
02:24
1,3 km/h
NW
13,1 km/h
13:29  
---
81 %59 %
14:38
91 %
10:29
33,4 klux68,1 klux
12:59
8:09 Std 
31.
Oktober
7,0 C1,4 C
07:35
18,0 C
15:30
1028,9 hPa1026,2 hPa
15:30
1031,4 hPa
07:40
0,9 km/h
SO
12,3 km/h
12:50  
---
79 %54 %
14:45
91 %
10:20
30,7 klux62,3 klux
11:25
7:30 Std 



Oktober
2016

Temperatur

  

Luftdruck

  

Wind

  

Regen

  

Luftfeuchte

  

Helligkeit

Sonnen-
schein

Min

Max

Min

Max

Max

Max

Min

Max

Max

Max

8,4 C

1,1 C

07:50 Uhr
10.10.2016

21,2 C

16:01 Uhr
16.10.2016

1021,0 hPa

1005,1 hPa

17:59 Uhr
14.10.2016

1034,6 hPa

09:43 Uhr
29.10.2016

3,9 km/h

W-SW

44,5 km/h

15:14 Uhr
19.10.2016

12,2 l/m

10:35 Stunden
03.10.2016

84 %

49 %

15:41 Uhr
05.10.2016

94 %

00:50 Uhr
25.10.2016

18,9 klux

105,0 klux

12:43 Uhr
02.10.2016

9:10 Std

am
16.10.2016

Gesamt

Gesamt

53,5 l/m

23 Tage
81:02 h

74:35 Std


Wetter-Diagramme Oktober 2016     Heinzenberg / Taunus   
TemperaturLuftfeuchte
SolarstrahlungLuftdruck
HelligkeitSonnenschein
RegenmengeRegendauer
Wind-GeschwindigkeitWind-Richtung